Location: Caracas
(10.5033°N, 66.8422°W)
Time: 04:20:17
(UTC-04:00)

N. Korean satellite - Pass Details

Date: 13 November 2017
Orbit: 460 x 514 km, 97.2° (Epoch: 20 November)

Event Time Altitude Azimuth Distance (km) Brightness Sun altitude
Rises 18:27:52 0° 156° (SSE) 2,475 10.1 -7.0°
Reaches altitude 10° 18:29:59 10° 149° (SSE) 1,598 9.0 -7.5°
Maximum altitude 18:33:12 39° 78° (ENE) 697 6.9 -8.3°
Drops below altitude 10° 18:36:25 10° 8° (N) 1,598 8.9 -9.0°
Sets 18:38:32 0° 0° (N) 2,475 10.0 -9.5°
